Tracking 30743 objects as of 24-Jun-2025
HD Live streaming from Space Station
objects crossing your sky now

STARLINK-32737

Track STARLINK-32737 now!
10-day predictions
STARLINK-32737 is classified as:


NORAD ID: 62444
Int'l Code: 2024-251N
Perigee: 452.8 km
Apogee: 455.9 km
Inclination: 53.2 °
Period: 93.5 minutes
Semi major axis: 6825 km
RCS: Unknown
Launch date: December 29, 2024
Source: United States (US)
Launch site: AIR FORCE WESTERN TEST RANGE (AFWTR)
Your satellite tracking list
Your tracking list is empty




NASA's NSSDC Master Catalog

Two Line Element Set (TLE):
1 62444U 24251N   25174.80430026  .00027549  00000-0  69574-3 0  9997
2 62444  53.1581  96.9717 0002284 110.0845 250.0405 15.39639774 28324
Source of the keplerian elements: AFSPC